GW0560 Weather Reports


time (UTC)temp
C
wind
direction
speed
KPH
gust
KPH
rain 1hr
cm
rain 24hr
cm
rain mn
cm
humidity
%
barometer
mb
20260507160056 8 293 8.0 24.1 0.00 0.00 0.00 49 1012.2
20260507154549 8 219 9.7 19.3 0.00 0.00 0.00 51 1012.0
20260507153107 8 305 12.9 25.7 0.00 0.00 0.00 56 1012.1
20260507151554 8 263 11.3 22.5 0.00 0.00 0.00 55 1012.1
20260507150058 8 216 6.4 19.3 0.00 0.00 0.00 61 1012.1
20260507144556 8 193 9.7 17.7 0.00 0.00 0.00 62 1012.1
20260507143104 8 301 9.7 19.3 0.00 0.00 0.00 63 1012.2
20260507141607 8 257 6.4 14.5 0.00 0.00 0.00 62 1012.2
20260507134555 7 248 6.4 16.1 0.00 0.00 0.00 63 1012.3
20260507133056 7 292 4.8 12.9 0.00 0.00 0.00 65 1012.2
20260507131555 7 266 3.2 11.3 0.00 0.00 0.00 68 1012.3
20260507130107 6 234 3.2 9.7 0.00 0.00 0.00 73 1012.2
20260507124600 5 244 0.0 6.4 0.00 0.00 0.00 81 1012.1
20260507123056 4 0 0.0 1.6 0.00 0.00 0.00 85 1012.2
20260507121557 3 334 0.0 0.0 0.00 0.00 0.00 88 1012.2
20260507120056 2 0 0.0 0.0 0.00 0.00 0.00 91 1012.2
20260507114550 2 0 0.0 0.0 0.00 0.00 0.00 91 1012.1
20260507113052 1 0 0.0 0.0 0.00 0.00 0.00 92 1012.1
20260507111550 1 0 0.0 0.0 0.00 0.00 0.00 92 1012.0
20260507110059 0 0 0.0 0.0 0.00 0.00 0.00 92 1011.7
20260507104600 0 0 0.0 0.0 0.00 0.00 0.00 91 1011.7
20260507103127 0 0 0.0 0.0 0.00 0.00 0.00 90 1011.5
20260507101554 1 0 0.0 0.0 0.00 0.00 0.00 90 1011.5
20260507100106 1 0 0.0 0.0 0.00 0.00 0.00 90 1011.5
20260507094551 1 0 0.0 0.0 0.00 0.00 0.00 89 1011.5
20260507093053 1 0 0.0 0.0 0.00 0.00 0.00 89 1011.5
20260507091552 1 0 0.0 0.0 0.00 0.00 0.00 88 1011.6
20260507090057 2 0 0.0 0.0 0.00 0.00 0.00 87 1011.7
20260507084603 2 0 0.0 0.0 0.00 0.00 0.00 88 1011.8
20260507083050 2 0 0.0 0.0 0.00 0.00 0.00 87 1011.8
20260507081558 2 0 0.0 0.0 0.00 0.00 0.00 87 1011.8
20260507080057 2 0 0.0 0.0 0.00 0.00 0.00 87 1011.9
20260507074602 2 0 0.0 0.0 0.00 0.00 0.00 86 1011.7
20260507073051 2 0 0.0 0.0 0.00 0.00 0.00 86 1011.9
20260507071559 2 0 0.0 0.0 0.00 0.00 0.00 86 1011.9
20260507070106 2 0 0.0 1.6 0.00 0.00 0.00 85 1011.9
20260507064555 2 0 0.0 0.0 0.00 0.00 0.00 86 1011.9
20260507063053 2 0 0.0 0.0 0.00 0.00 0.00 85 1012.0
20260507061554 3 0 0.0 0.0 0.00 0.00 0.00 83 1012.0
20260507060101 3 0 0.0 1.6 0.00 0.00 0.00 81 1012.1
20260507054609 4 0 0.0 0.0 0.00 0.00 0.00 77 1012.1
20260507053103 5 0 0.0 4.8 0.00 0.00 0.00 76 1012.0
20260507051558 5 173 3.2 4.8 0.00 0.00 0.00 73 1012.1
20260507050059 6 0 0.0 0.0 0.00 0.00 0.00 71 1012.0
20260507044558 6 0 0.0 1.6 0.00 0.00 0.00 69 1011.9
20260507043055 7 0 0.0 0.0 0.00 0.00 0.00 61 1011.9
20260507041603 7 0 0.0 0.0 0.00 0.00 0.00 61 1011.9
20260507040055 8 0 0.0 1.6 0.00 0.00 0.00 55 1012.1
20260507034552 8 0 0.0 3.2 0.00 0.00 0.00 58 1012.1
20260507033054 8 265 1.6 4.8 0.00 0.00 0.00 54 1012.2
20260507031550 8 264 0.0 4.8 0.00 0.00 0.00 53 1012.2
20260507030051 8 263 3.2 4.8 0.00 0.00 0.00 51 1012.2
20260507024555 8 229 1.6 4.8 0.00 0.00 0.00 53 1012.1
20260507023054 8 246 1.6 4.8 0.00 0.00 0.00 50 1012.0
20260507021629 8 230 1.6 6.4 0.00 0.00 0.00 50 1012.0
20260507020109 9 228 3.2 8.0 0.00 0.00 0.00 51 1011.8
20260507014620 9 219 1.6 6.4 0.00 0.00 0.00 50 1011.9
20260507013053 9 249 1.6 6.4 0.00 0.00 0.00 53 1011.7
20260507011559 9 0 0.0 4.8 0.00 0.00 0.00 53 1011.7
20260507010054 9 198 1.6 4.8 0.00 0.00 0.00 51 1011.5
20260507004550 9 207 0.0 4.8 0.00 0.00 0.00 56 1011.7
20260507003055 10 254 0.0 3.2 0.00 0.00 0.00 54 1011.5
20260507001601 10 254 1.6 3.2 0.00 0.00 0.00 53 1011.3
20260507000123 10 0 0.0 3.2 0.00 0.00 0.00 51 1011.2
20260506234615 10 0 0.0 3.2 0.00 0.00 0.00 52 1011.4
20260506233052 10 229 1.6 4.8 0.00 0.00 0.00 49 1011.4
20260506231551 10 191 3.2 12.9 0.00 0.00 0.00 48 1011.2
20260506224558 10 211 4.8 16.1 0.00 0.00 0.00 44 1011.3
20260506223050 10 240 6.4 16.1 0.00 0.00 0.00 45 1011.5
20260506221601 10 241 4.8 12.9 0.00 0.00 0.00 45 1011.7
20260506220052 10 221 6.4 16.1 0.00 0.00 0.00 47 1011.5
20260506214551 10 291 6.4 17.7 0.00 0.00 0.00 47 1011.4
20260506213055 10 265 9.7 19.3 0.00 0.00 0.00 45 1011.5
20260506211554 10 323 6.4 19.3 0.00 0.00 0.00 47 1011.4
20260506210054 10 182 8.0 16.1 0.00 0.00 0.00 45 1011.5
20260506204553 10 273 8.0 17.7 0.00 0.00 0.00 46 1011.5
20260506203052 10 258 11.3 17.7 0.00 0.00 0.00 47 1011.5
20260506201553 10 267 6.4 22.5 0.00 0.00 0.00 45 1011.6
20260506200055 10 271 6.4 16.1 0.00 0.00 0.00 46 1011.7
20260506194554 10 277 4.8 14.5 0.00 0.00 0.00 45 1011.7
20260506193055 10 254 4.8 14.5 0.00 0.00 0.00 47 1011.8
20260506191558 10 317 8.0 14.5 0.00 0.00 0.00 46 1012.0
20260506190056 10 277 8.0 17.7 0.00 0.00 0.00 47 1012.1
20260506184558 10 302 6.4 19.3 0.00 0.00 0.00 46 1012.0
20260506183102 9 349 6.4 16.1 0.00 0.00 0.00 48 1012.1
20260506181605 9 250 6.4 17.7 0.00 0.00 0.00 47 1012.1
20260506180055 9 246 3.2 16.1 0.00 0.00 0.00 49 1012.1
20260506174609 8 229 8.0 17.7 0.00 0.00 0.00 49 1012.3
20260506173125 8 257 8.0 20.9 0.00 0.00 0.00 48 1012.5
20260506171552 8 9 6.4 19.3 0.00 0.00 0.00 51 1012.3
20260506170104 8 223 1.6 14.5 0.00 0.00 0.00 53 1012.3
20260506164551 8 325 6.4 16.1 0.00 0.00 0.00 55 1012.3
20260506163056 8 325 1.6 16.1 0.00 0.00 0.00 57 1012.5
20260506161552 7 147 3.2 14.5 0.00 0.00 0.00 60 1012.6